Tracking 19248 objects as of 26-Sep-2018
HD Live streaming from Space Station
objects crossing your sky now

FENGYUN 1C DEB

Track FENGYUN 1C DEB now!
10-day predictions


NORAD ID: 31520
Int'l Code: 1999-025BXK
Perigee: 791.8 km
Apogee: 799.2 km
Inclination: 98.9 °
Period: 100.6 minutes
Semi major axis: 7166 km
RCS: 0.0163 m2 (small)
Launch date: May 10, 1999
Source: People's Republic of China (PRC)
Launch site: Taiyaun Space Center, China (TSC)

Note: This is SATELLITE DEBRIS
aabbcc
Your satellite tracking list
Your tracking list is empty




NASA's NSSDC Master Catalog

Two Line Element Set (TLE):
1 31520U 99025BXK 18267.01027726 +.00001464 +00000-0 +57363-3 0  9997
2 31520 098.8798 327.1724 0005191 163.2498 196.8856 14.31016761269883
Source of the keplerian elements: AFSPC